This is the latest recevied weather packets stored in our database for station/object KY4GW. If no packets are shown the sender has not sent any weather packets the latest 10 day(s).
| Time | Temp. | Humidity | Pressure | Rain* | Wind** | Luminosity | Snow |
|---|---|---|---|---|---|---|---|
| 1778028830 | 15.56° C | 91% | 1009.9 hPa | 0.76 mm | - | 0 W/m² | - |
| 1778028525 | 15.56° C | 90% | 1009.9 hPa | 0.76 mm | - | 0 W/m² | - |
| 1778028223 | 16.11° C | 89% | 1009.6 hPa | 0.51 mm | - | 0 W/m² | - |
| 1778027919 | 16.11° C | 86% | 1009.6 hPa | 0.51 mm | - | 1 W/m² | - |
| 1778027616 | 16.11° C | 86% | 1009.6 hPa | 0.25 mm | - | 0 W/m² | - |
| 1778027312 | 16.11° C | 89% | 1010.6 hPa | 0.25 mm | - | 1 W/m² | - |
| 1778027009 | 16.11° C | 86% | 1010.6 hPa | 0 mm | - | 1 W/m² | - |
| 1778026704 | 16.11° C | 87% | 1010.6 hPa | 0 mm | - | 1 W/m² | - |
| 1778026402 | 16.11° C | 86% | 1010.3 hPa | 0 mm | - | 2 W/m² | - |
| 1778026099 | 16.67° C | 86% | 1010.3 hPa | 0 mm | - | 3 W/m² | - |
| 1778025796 | 16.67° C | 85% | 1010.3 hPa | 0 mm | - | 4 W/m² | - |
| 1778025492 | 16.67° C | 85% | 1010.6 hPa | 0.25 mm | - | 20 W/m² | - |
| 1778025190 | 16.67° C | 85% | 1010.6 hPa | 0.25 mm | - | 20 W/m² | - |
| 1778024887 | 16.67° C | 83% | 1010.6 hPa | 0.25 mm | - | 9 W/m² | - |
| 1778024585 | 17.22° C | 80% | 1010.6 hPa | 0.25 mm | - | 4 W/m² | - |
| 1778024282 | 17.78° C | 80% | 1010.6 hPa | 0.25 mm | - | 7 W/m² | - |
| 1778023979 | 17.78° C | 76% | 1010.6 hPa | 0.25 mm | - | 5 W/m² | - |
| 1778023676 | 18.33° C | 74% | 1010.6 hPa | 0.25 mm | - | 4 W/m² | - |
| 1778023374 | 18.33° C | 72% | 1010.6 hPa | 0 mm | - | 11 W/m² | - |
| 1778023070 | 17.78° C | 72% | 1010.6 hPa | 0 mm | - | 13 W/m² | - |
| 1778022769 | 17.78° C | 74% | 1010.6 hPa | 0 mm | - | 12 W/m² | - |
| 1778022467 | 17.78° C | 73% | 1010.6 hPa | 0 mm | - | 26 W/m² | - |
| 1778022163 | 17.78° C | 77% | 1010.6 hPa | 0 mm | - | 21 W/m² | - |
| 1778021860 | 17.78° C | 74% | 1011 hPa | 0 mm | - | 9 W/m² | - |
| 1778021557 | 17.78° C | 77% | 1011 hPa | 0 mm | - | 14 W/m² | - |
* Rain latest hour (hover to see other rain measurements)
** Current wind speed in m/s (hover to see current wind gust speed)